• In United Kingdom
  • List of Countries
  • For 7 days
  • Water Temperature
  • Satellite Maps
  • Weather Map
  • Weather Widgets
  • user-avatar
    Login

    Hourly Weather Trzyrzecze

    Today, 20 April, Friday

    Time Temperature Precipitation Wind Pressure Humidity
    00:00 +7°C° 0 mm 3 mps 759 mmHg 80%
    01:00 +7°C° 0 mm 3 mps 759 mmHg 83%
    02:00 +5°C° 0 mm 3 mps 759 mmHg 89%
    03:00 +5°C° 0 mm 3 mps 759 mmHg 90%
    04:00 +5°C° 0 mm 2 mps 759 mmHg 91%
    05:00 +5°C° 0 mm 2 mps 759 mmHg 92%
    06:00 +6°C° 0 mm 2 mps 759 mmHg 85%
    07:00 +8°C° 0 mm 2 mps 759 mmHg 79%
    08:00 +9°C° 0 mm 2 mps 759 mmHg 71%
    09:00 +12°C° 0 mm 2 mps 759 mmHg 64%
    10:00 +14°C° 0 mm 2 mps 759 mmHg 56%
    11:00 +16°C° 0 mm 3 mps 759 mmHg 48%
    12:00 +17°C° 0 mm 3 mps 758 mmHg 45%
    13:00 +18°C° 0 mm 3 mps 758 mmHg 43%
    14:00 +19°C° 0 mm 3 mps 758 mmHg 40%
    15:00 +19°C° 0 mm 3 mps 757 mmHg 41%
    16:00 +19°C° 0 mm 3 mps 756 mmHg 43%
    17:00 +20°C° 0 mm 3 mps 756 mmHg 44%
    18:00 +18°C° 0 mm 3 mps 755 mmHg 51%
    19:00 +16°C° 0 mm 3 mps 755 mmHg 58%
    20:00 +13°C° 0 mm 3 mps 755 mmHg 65%
    21:00 +13°C° 0 mm 3 mps 754 mmHg 66%
    22:00 +12°C° 0 mm 3 mps 753 mmHg 68%
    23:00 +11°C° 0 mm 4 mps 753 mmHg 69%

    Tomorrow, 21 April, Saturday

    Time Temperature Precipitation Wind Pressure Humidity
    00:00 +11°C° 0 mm 4 mps 752 mmHg 67%
    01:00 +10°C° 0 mm 5 mps 752 mmHg 65%
    02:00 +10°C° 0 mm 5 mps 751 mmHg 63%
    03:00 +10°C° 0 mm 5 mps 750 mmHg 62%
    04:00 +10°C° 0 mm 5 mps 749 mmHg 61%
    05:00 +10°C° 0 mm 6 mps 749 mmHg 60%
    06:00 +11°C° 0 mm 6 mps 748 mmHg 63%
    07:00 +12°C° 0 mm 7 mps 748 mmHg 66%
    08:00 +14°C° 0 mm 7 mps 747 mmHg 68%
    09:00 +15°C° 0 mm 7 mps 747 mmHg 64%
    10:00 +16°C° 0 mm 8 mps 747 mmHg 59%
    11:00 +17°C° 0 mm 8 mps 747 mmHg 55%
    12:00 +17°C° 0 mm 8 mps 748 mmHg 50%
    13:00 +17°C° 0 mm 8 mps 748 mmHg 46%
    14:00 +17°C° 0 mm 9 mps 748 mmHg 41%
    15:00 +17°C° 0 mm 8 mps 748 mmHg 42%
    16:00 +16°C° 0 mm 8 mps 749 mmHg 43%
    17:00 +15°C° 0 mm 7 mps 749 mmHg 44%
    18:00 +13°C° 0 mm 6 mps 749 mmHg 50%
    19:00 +12°C° 0 mm 5 mps 749 mmHg 57%
    20:00 +10°C° 0 mm 4 mps 749 mmHg 63%
    21:00 +8°C° 0 mm 4 mps 750 mmHg 66%
    22:00 +7°C° 0 mm 4 mps 750 mmHg 69%
    23:00 +7°C° 0 mm 4 mps 750 mmHg 73%

    Day after tomorrow, 22 April, Sunday

    Time Temperature Precipitation Wind Pressure Humidity
    00:00 +6°C° 0 mm 4 mps 750 mmHg 75%
    01:00 +6°C° 0 mm 4 mps 750 mmHg 77%
    02:00 +5°C° 0 mm 4 mps 750 mmHg 79%
    03:00 +5°C° 0 mm 4 mps 750 mmHg 81%
    04:00 +5°C° 0 mm 4 mps 750 mmHg 84%
    05:00 +4°C° 0 mm 4 mps 750 mmHg 86%
    06:00 +5°C° 0 mm 4 mps 750 mmHg 81%
    07:00 +6°C° 0 mm 4 mps 750 mmHg 76%
    08:00 +8°C° 0 mm 4 mps 750 mmHg 72%
    09:00 +11°C° 0 mm 4 mps 750 mmHg 64%
    10:00 +13°C° 0 mm 4 mps 750 mmHg 56%
    11:00 +15°C° 0 mm 5 mps 750 mmHg 48%
    12:00 +15°C° 0 mm 5 mps 750 mmHg 46%
    13:00 +16°C° 0 mm 5 mps 750 mmHg 44%
    14:00 +17°C° 0 mm 5 mps 750 mmHg 43%
    15:00 +16°C° 0 mm 5 mps 750 mmHg 44%
    16:00 +16°C° 0 mm 5 mps 749 mmHg 46%
    17:00 +16°C° 0 mm 5 mps 749 mmHg 47%
    18:00 +14°C° 0 mm 4 mps 749 mmHg 54%
    19:00 +12°C° 0 mm 3 mps 749 mmHg 61%
    20:00 +10°C° 0 mm 3 mps 750 mmHg 68%
    21:00 +9°C° 0 mm 2 mps 750 mmHg 72%
    22:00 +9°C° 0 mm 2 mps 750 mmHg 75%
    23:00 +8°C° 0 mm 2 mps 750 mmHg 78%

    23 April, Monday

    Time Temperature Precipitation Wind Pressure Humidity
    00:00 +7°C° 0 mm 2 mps 750 mmHg 79%
    01:00 +7°C° 0 mm 1 mps 750 mmHg 81%
    02:00 +7°C° 0 mm 1 mps 750 mmHg 83%
    03:00 +6°C° 0 mm 1 mps 750 mmHg 84%
    04:00 +6°C° 0 mm 1 mps 750 mmHg 85%
    05:00 +4°C° 0 mm 0 mps 750 mmHg 86%
    06:00 +7°C° 0 mm 1 mps 750 mmHg 80%
    07:00 +9°C° 0 mm 1 mps 750 mmHg 73%
    08:00 +10°C° 0 mm 1 mps 749 mmHg 66%
    09:00 +12°C° 0 mm 2 mps 749 mmHg 60%
    10:00 +14°C° 0 mm 2 mps 749 mmHg 54%
    11:00 +14°C° 0 mm 3 mps 748 mmHg 48%
    12:00 +16°C° 0 mm 3 mps 748 mmHg 47%
    13:00 +17°C° 0 mm 3 mps 747 mmHg 45%
    14:00 +18°C° 0 mm 4 mps 747 mmHg 44%
    15:00 +17°C° 0.5 mm 3 mps 746 mmHg 53%
    16:00 +16°C° 0.5 mm 3 mps 746 mmHg 61%
    17:00 +15°C° 0.5 mm 2 mps 745 mmHg 69%
    18:00 +14°C° 0.7 mm 2 mps 745 mmHg 76%
    19:00 +13°C° 0.7 mm 2 mps 745 mmHg 82%
    20:00 +13°C° 0.7 mm 2 mps 744 mmHg 89%
    21:00 +12°C° 0 mm 2 mps 744 mmHg 90%
    22:00 +12°C° 0 mm 2 mps 745 mmHg 90%
    23:00 +12°C° 0 mm 2 mps 745 mmHg 91%

    24 April, Tuesday

    Time Temperature Precipitation Wind Pressure Humidity
    00:00 +10°C° 0 mm 3 mps 745 mmHg 92%
    01:00 +10°C° 0 mm 3 mps 745 mmHg 92%
    02:00 +10°C° 0 mm 4 mps 745 mmHg 93%
    03:00 +8°C° 0 mm 4 mps 745 mmHg 93%
    04:00 +7°C° 0 mm 4 mps 745 mmHg 93%
    05:00 +6°C° 0 mm 4 mps 746 mmHg 93%
    06:00 +7°C° 0 mm 4 mps 746 mmHg 89%
    07:00 +8°C° 0 mm 4 mps 746 mmHg 86%
    08:00 +8°C° 0 mm 5 mps 747 mmHg 82%
    09:00 +10°C° 0 mm 5 mps 747 mmHg 75%
    10:00 +11°C° 0 mm 6 mps 747 mmHg 68%
    11:00 +13°C° 0 mm 6 mps 747 mmHg 60%
    12:00 +13°C° 0 mm 6 mps 747 mmHg 60%
    13:00 +13°C° 0 mm 6 mps 747 mmHg 60%
    14:00 +12°C° 0 mm 5 mps 747 mmHg 60%
    15:00 +12°C° 0 mm 5 mps 747 mmHg 60%
    16:00 +12°C° 0 mm 5 mps 747 mmHg 59%
    17:00 +12°C° 0 mm 5 mps 747 mmHg 59%
    18:00 +11°C° 0.1 mm 4 mps 747 mmHg 65%
    19:00 +10°C° 0.1 mm 4 mps 747 mmHg 72%
    20:00 +9°C° 0.1 mm 3 mps 747 mmHg 78%
    21:00 +9°C° 0 mm 3 mps 747 mmHg 82%
    22:00 +8°C° 0 mm 3 mps 746 mmHg 86%
    23:00 +7°C° 0 mm 4 mps 746 mmHg 90%

    25 April, Wednesday

    Time Temperature Precipitation Wind Pressure Humidity
    00:00 +8°C° 0.1 mm 4 mps 746 mmHg 90%
    01:00 +8°C° 0.1 mm 4 mps 745 mmHg 90%
    02:00 +9°C° 0.1 mm 5 mps 745 mmHg 90%
    03:00 +8°C° 0 mm 5 mps 745 mmHg 91%
    04:00 +8°C° 0 mm 4 mps 745 mmHg 92%
    05:00 +8°C° 0 mm 4 mps 745 mmHg 94%
    06:00 +9°C° 0.1 mm 5 mps 744 mmHg 91%
    07:00 +9°C° 0.1 mm 5 mps 744 mmHg 89%
    08:00 +10°C° 0.1 mm 5 mps 744 mmHg 87%
    09:00 +10°C° 1.4 mm 5 mps 744 mmHg 88%
    10:00 +11°C° 1.4 mm 4 mps 743 mmHg 90%
    11:00 +11°C° 1.4 mm 4 mps 743 mmHg 92%
    12:00 +11°C° 0.7 mm 4 mps 742 mmHg 91%
    13:00 +12°C° 0.7 mm 5 mps 742 mmHg 90%
    14:00 +13°C° 0.7 mm 5 mps 742 mmHg 89%
    15:00 +12°C° 0.6 mm 5 mps 742 mmHg 89%
    16:00 +12°C° 0.6 mm 5 mps 742 mmHg 88%
    17:00 +10°C° 0.6 mm 5 mps 742 mmHg 88%
    18:00 +10°C° 0.1 mm 4 mps 742 mmHg 89%
    19:00 +8°C° 0.1 mm 4 mps 743 mmHg 89%
    20:00 +8°C° 0.1 mm 3 mps 743 mmHg 90%
    21:00 +8°C° 0 mm 3 mps 743 mmHg 91%
    22:00 +7°C° 0 mm 3 mps 744 mmHg 92%
    23:00 +5°C° 0 mm 3 mps 744 mmHg 93%
    Show more